TimeCDT,TemperatureF,Dew PointF,Humidity,Sea Level PressureIn,VisibilityMPH,Wind Direction,Wind SpeedMPH,Gust SpeedMPH,PrecipitationIn,Events,Conditions,WindDirDegrees,DateUTC
12:24 AM,39.2,39.2,100,29.73,7.0,East,4.6,-,N/A,,Scattered Clouds,80,2012-09-22 05:24:00
12:33 AM,39.2,39.2,100,29.73,7.0,East,4.6,-,N/A,,Mostly Cloudy,90,2012-09-22 05:33:00
12:54 AM,37.9,37.9,100,29.76,5.0,East,4.6,-,N/A,,Overcast,90,2012-09-22 05:54:00
1:18 AM,37.4,37.4,100,29.73,4.0,East,3.5,-,N/A,,Mostly Cloudy,100,2012-09-22 06:18:00
1:34 AM,39.2,39.2,100,29.74,2.0,WSW,3.5,-,N/A,,Mostly Cloudy,240,2012-09-22 06:34:00
1:41 AM,42.8,41.0,93,29.75,1.5,West,4.6,-,N/A,,Overcast,260,2012-09-22 06:41:00
1:44 AM,42.8,41.0,93,29.74,3.0,WNW,3.5,-,N/A,,Overcast,290,2012-09-22 06:44:00
1:54 AM,42.1,42.1,100,29.77,10.0,West,3.5,-,N/A,,Overcast,270,2012-09-22 06:54:00
2:54 AM,43.0,41.0,93,29.76,10.0,Calm,Calm,-,0.00,Rain,Light Rain,0,2012-09-22 07:54:00
3:50 AM,41.0,37.4,87,29.76,10.0,WNW,13.8,24.2,0.01,Rain,Light Rain,290,2012-09-22 08:50:00
3:54 AM,41.0,37.9,89,29.80,10.0,WNW,17.3,24.2,0.01,Rain,Light Rain,290,2012-09-22 08:54:00
4:22 AM,39.2,37.4,93,29.78,10.0,WNW,10.4,-,0.01,Rain,Light Rain,290,2012-09-22 09:22:00
4:54 AM,39.9,37.0,89,29.82,10.0,WNW,9.2,-,0.02,Rain,Light Rain,300,2012-09-22 09:54:00
5:10 AM,39.2,37.4,93,29.80,10.0,NW,5.8,-,0.00,Rain,Light Rain,310,2012-09-22 10:10:00
5:54 AM,39.9,37.9,93,29.86,10.0,NW,6.9,-,0.00,,Overcast,310,2012-09-22 10:54:00
6:03 AM,39.2,37.4,93,29.83,10.0,NW,6.9,-,N/A,,Overcast,320,2012-09-22 11:03:00
6:16 AM,39.2,37.4,93,29.83,10.0,WNW,6.9,-,N/A,,Overcast,290,2012-09-22 11:16:00
6:39 AM,39.2,37.4,93,29.85,10.0,WNW,8.1,-,N/A,,Overcast,300,2012-09-22 11:39:00
6:54 AM,39.0,37.0,93,29.89,10.0,NW,9.2,-,N/A,,Overcast,310,2012-09-22 11:54:00
7:54 AM,41.0,39.0,93,29.94,10.0,NW,5.8,-,N/A,,Overcast,320,2012-09-22 12:54:00
8:54 AM,46.0,39.9,79,29.96,10.0,NNW,8.1,-,N/A,,Mostly Cloudy,340,2012-09-22 13:54:00
9:37 AM,46.4,39.2,76,29.95,10.0,North,10.4,-,N/A,,Scattered Clouds,350,2012-09-22 14:37:00
9:54 AM,46.9,39.9,77,29.99,10.0,NNW,11.5,17.3,N/A,,Partly Cloudy,340,2012-09-22 14:54:00
10:32 AM,50.0,39.2,66,29.98,10.0,NNW,9.2,-,N/A,,Mostly Cloudy,330,2012-09-22 15:32:00
10:47 AM,50.0,39.2,66,29.98,10.0,NNW,10.4,19.6,N/A,,Overcast,330,2012-09-22 15:47:00
10:54 AM,48.9,37.9,66,30.02,10.0,NNW,15.0,21.9,N/A,,Overcast,330,2012-09-22 15:54:00
11:54 AM,53.1,36.0,52,30.03,10.0,NNW,15.0,23.0,N/A,,Scattered Clouds,330,2012-09-22 16:54:00
12:54 PM,52.0,35.1,53,30.05,10.0,NW,11.5,18.4,N/A,,Mostly Cloudy,320,2012-09-22 17:54:00
1:54 PM,55.0,32.0,42,30.05,10.0,NNW,16.1,23.0,0.01,,Mostly Cloudy,340,2012-09-22 18:54:00
2:54 PM,54.0,28.0,37,30.06,10.0,WNW,12.7,21.9,N/A,,Mostly Cloudy,300,2012-09-22 19:54:00
3:54 PM,54.0,28.9,38,30.08,10.0,WNW,15.0,21.9,N/A,,Scattered Clouds,290,2012-09-22 20:54:00
4:54 PM,53.1,28.0,38,30.09,10.0,WNW,18.4,25.3,N/A,,Scattered Clouds,290,2012-09-22 21:54:00
5:54 PM,51.1,28.9,43,30.12,10.0,NW,12.7,23.0,N/A,,Scattered Clouds,310,2012-09-22 22:54:00
6:54 PM,48.9,33.1,54,30.14,10.0,NW,10.4,-,N/A,,Overcast,320,2012-09-22 23:54:00
7:54 PM,46.0,36.0,68,30.15,10.0,WNW,11.5,18.4,0.00,,Overcast,300,2012-09-23 00:54:00
8:54 PM,44.1,36.0,73,30.16,10.0,WNW,9.2,-,N/A,,Mostly Cloudy,290,2012-09-23 01:54:00
9:54 PM,43.0,35.1,74,30.17,10.0,NW,6.9,-,N/A,,Clear,310,2012-09-23 02:54:00
10:54 PM,39.9,35.1,83,30.18,10.0,WNW,5.8,-,N/A,,Clear,300,2012-09-23 03:54:00
11:54 PM,39.0,35.1,86,30.18,10.0,WNW,3.5,-,N/A,,Clear,290,2012-09-23 04:54:00